Theta_e
302 303 302 300 300 304 310 308 304 306 305 306 306 305 302 305 306 307 307 306 305 305 305 306 305 306 306 307 307 308 307 309 311 309 307 305 306 309 310 314 312 311 313 312
301 300 301 302 303 304 307 305 306 306 306 306 305 304 304 305 307 306 306 306 306 305 305 307 306 306 307 307 308 308 307 307 308 306 305 306 308 307 309 309 310 311 314 313
301 301 302 303 304 305 306 305 304 304 305 305 302 302 303 306 307 307 307 306 306 306 307 304 307 307 307 308 309 309 308 306 308 307 307 307 309 308 307 307 310 309 310 310
301 302 302 302 302 304 306 305 302 304 305 306 303 302 303 305 306 306 307 306 306 306 306 306 306 305 305 306 307 309 307 308 305 306 307 307 308 308 307 306 307 309 308 308
298 299 300 301 301 302 306 304 302 303 303 305 306 304 303 304 305 305 306 305 305 304 306 305 304 305 305 306 305 306 304 308 304 305 305 304 305 305 304 303 304 305 306 306
299 300 300 301 302 302 302 303 303 303 304 305 306 306 303 303 304 305 307 306 304 304 306 307 308 306 306 305 305 304 304 304 304 306 303 303 304 303 303 302 302 304 306 306
298 298 299 301 301 302 302 303 302 300 304 304 305 304 304 303 303 304 305 306 305 306 306 305 304 303 302 301 301 303 302 303 302 305 302 304 304 300 300 301 301 302 301 302
297 297 298 299 301 302 304 303 302 301 304 303 303 303 304 304 304 304 304 305 306 306 305 302 301 299 301 302 301 299 301 302 304 303 302 304 304 303 302 302 304 301 302 302
292 293 294 295 298 301 301 303 303 302 302 302 304 304 303 301 301 301 304 304 304 305 300 301 303 303 300 300 302 298 299 299 302 302 306 307 303 302 300 300 305 300 302 302
291 291 291 292 294 300 301 301 302 303 302 304 303 302 303 303 301 300 301 302 302 304 299 302 301 301 298 300 299 302 302 301 306 304 306 304 303 302 300 303 303 300 302 302
291 291 294 292 293 300 301 303 302 303 302 304 302 305 303 303 303 301 301 302 301 298 302 301 300 299 298 299 298 300 302 302 302 300 303 304 303 302 304 301 303 302 303 303
292 293 293 293 294 300 301 301 301 302 302 304 303 304 304 304 305 305 303 303 300 302 299 298 297 299 295 297 302 298 301 301 302 302 303 302 303 303 304 303 301 303 303 303
292 293 292 292 293 299 298 303 303 302 303 303 304 304 304 304 303 304 304 302 303 303 302 298 297 301 297 299 298 299 298 299 301 301 301 299 302 302 301 301 302 302 303 303
292 292 292 292 294 299 299 301 304 303 303 304 303 304 304 304 304 303 304 305 304 303 302 300 298 300 298 299 298 298 299 298 299 299 299 301 302 303 302 301 301 303 303 303
293 292 289 293 293 299 300 303 304 304 304 303 300 301 303 304 305 304 304 304 304 303 301 298 300 298 298 296 296 296 297 298 300 302 302 301 302 303 303 302 302 302 302 303
292 291 288 292 293 299 299 301 302 302 302 303 302 299 301 302 303 303 303 303 303 303 302 299 300 300 300 299 300 299 301 301 301 301 301 302 303 303 303 303 301 302 302 302
291 290 288 293 293 296 297 300 300 300 302 303 300 299 298 299 300 301 301 301 302 302 302 300 300 300 301 299 302 302 302 302 303 303 303 303 302 302 302 302 302 302 302 303
289 289 289 290 293 297 299 301 302 301 302 302 300 299 299 299 299 299 300 300 301 301 300 300 299 298 298 300 301 302 302 302 303 303 302 302 302 302 302 302 302 302 302 302
290 289 291 291 297 299 301 302 302 302 302 301 301 300 301 299 298 299 299 300 297 298 297 297 299 297 299 301 301 302 301 301 301 302 302 302 302 303 301 301 302 302 302 302
289 293 295 298 299 299 301 301 301 300 301 301 299 298 299 299 298 297 298 297 297 298 298 298 298 299 300 301 300 300 300 300 300 299 301 301 301 301 301 301 301 301 302 302
293 295 296 297 299 299 300 298 300 298 301 300 298 298 298 299 299 299 298 297 296 294 295 298 297 299 298 297 298 298 298 298 298 299 299 300 299 300 301 300 301 301 301 302
289 292 293 295 298 297 299 300 299 301 302 300 296 298 300 299 300 297 296 297 295 294 296 299 299 295 297 296 297 297 297 298 299 299 300 300 301 300 301 300 300 301 301 301
291 294 294 295 297 298 301 302 302 301 300 298 298 298 299 299 299 296 296 297 297 295 298 298 294 296 294 295 296 297 297 298 298 299 299 299 300 301 301 301 300 300 301 301
294 295 296 296 298 298 297 295 300 299 299 299 299 297 300 300 300 298 297 296 296 300 301 297 289 293 294 295 295 296 297 297 298 298 299 299 300 300 301 301 300 300 300 300
294 294 295 295 295 295 295 297 298 299 299 299 300 299 301 301 300 297 295 296 297 301 299 292 292 293 295 296 296 296 297 297 298 298 298 298 298 299 299 299 299 299 299 300
293 293 293 294 294 293 296 298 298 299 300 301 302 299 299 301 298 293 293 295 295 295 290 293 292 293 293 294 296 297 297 297 298 298 298 298 298 298 298 298 299 299 299 299
291 291 291 291 293 293 294 295 298 299 301 299 296 299 298 296 292 294 291 291 291 292 293 293 294 295 295 294 295 298 299 299 297 297 298 298 298 298 298 298 298 298 298 298
Wind_Speed
18 17 19 18 20 21 38 28 4 21 32 9 8 7 6 4 5 11 5 3 7 7 7 5 5 6 6 5 6 4 5 3 6 10 12 5 4 5 3 3 4 4 6 8
20 19 17 17 17 23 31 8 6 30 39 7 10 6 5 6 5 5 7 7 6 3 6 3 7 4 5 7 6 4 3 2 5 9 4 1 4 3 5 4 3 8 5 7
16 17 17 18 18 24 28 9 4 9 26 12 8 7 7 6 13 6 8 4 5 3 4 6 4 4 3 3 7 5 4 3 7 8 12 5 13 11 8 5 4 6 10 22
13 15 16 16 18 19 33 14 5 10 7 16 6 9 5 8 8 10 15 4 8 8 6 3 6 5 4 5 3 3 4 4 5 11 16 14 16 18 17 9 13 7 15 16
14 16 18 24 22 21 41 29 8 8 3 25 22 14 8 9 5 9 6 7 10 8 8 10 8 6 4 6 1 4 1 4 3 11 7 5 9 14 15 13 8 12 18 20
15 14 16 20 21 27 30 38 28 16 14 15 16 20 19 10 9 12 12 17 6 8 18 23 21 12 7 6 5 4 3 0 3 5 7 11 4 5 5 5 5 5 4 7
17 17 19 20 26 35 48 40 28 9 4 12 18 14 24 17 18 8 5 9 9 7 7 5 3 6 7 6 7 6 4 3 1 4 7 3 4 5 6 5 8 4 7 8
17 18 21 24 27 28 25 45 37 12 2 15 8 11 12 30 23 10 6 11 9 11 6 2 3 2 2 1 1 5 4 4 2 2 2 8 6 1 3 3 4 1 5 9
25 25 29 31 31 24 22 45 46 28 8 7 16 13 9 5 7 6 8 9 14 10 3 2 4 4 3 2 2 5 5 3 2 0 2 4 5 1 2 2 3 1 4 6
26 29 32 34 35 30 28 30 54 35 15 8 22 6 16 10 9 5 7 11 7 10 3 3 4 4 4 3 5 5 4 2 6 4 5 8 9 5 3 3 5 11 9 12
26 28 29 31 34 32 34 36 52 47 17 11 18 26 9 13 12 5 10 7 1 3 4 4 4 4 5 2 4 6 6 6 4 2 3 6 4 3 2 4 9 11 8 9
26 28 30 30 33 27 14 30 41 37 20 11 21 20 15 16 17 11 23 6 7 12 3 2 3 3 2 4 3 1 3 6 4 8 6 4 4 10 18 16 14 11 8 6
27 29 31 30 31 30 24 35 40 36 20 16 17 15 15 16 12 13 9 6 10 10 6 7 3 3 3 4 5 3 4 5 3 1 3 5 14 11 10 10 8 7 5 5
27 29 31 29 32 27 22 24 42 41 8 5 10 17 13 13 13 11 8 8 15 13 9 4 3 2 5 3 2 3 4 7 4 6 9 11 2 11 14 8 6 5 3 3
26 28 31 29 32 23 16 29 43 44 13 4 9 17 16 17 15 13 9 8 13 9 4 2 3 4 3 1 1 4 9 6 5 5 2 2 6 13 14 8 4 4 3 2
26 30 31 29 28 20 5 8 37 47 26 4 3 6 9 12 15 14 12 13 9 6 6 3 4 4 4 3 3 5 11 10 10 3 8 17 19 17 11 7 5 5 4 2
26 31 31 27 25 22 10 5 10 41 29 7 3 3 6 12 13 10 11 13 5 5 5 3 5 4 5 2 4 4 5 6 5 8 11 12 4 4 7 6 4 4 4 4
27 31 29 23 19 20 12 7 16 41 17 9 3 3 6 12 5 5 7 7 6 5 4 4 3 5 1 4 11 10 7 10 11 8 3 10 14 14 11 8 6 6 6 7
27 29 26 16 4 6 11 3 30 31 9 9 5 7 4 12 5 6 5 5 2 2 2 3 6 2 5 6 5 5 5 5 8 13 17 18 17 16 12 11 9 9 9 10
24 21 6 5 6 9 13 16 9 7 4 5 2 7 4 9 5 3 5 2 3 3 4 7 3 3 12 10 9 8 10 11 13 17 15 10 9 11 11 12 11 10 10 11
10 5 5 13 5 4 6 6 4 4 4 8 7 5 6 7 3 3 3 2 3 3 3 4 3 4 2 1 4 5 8 11 11 14 17 17 18 15 11 9 11 12 13 12
12 17 23 10 5 5 4 4 4 4 6 8 6 9 10 8 5 4 4 3 2 4 7 3 3 3 1 6 6 5 7 7 7 9 10 10 11 12 11 9 10 12 11 14
14 5 5 4 3 2 4 7 3 4 5 10 11 6 7 6 4 4 3 4 3 10 3 3 4 0 6 7 5 2 3 3 3 4 4 4 3 5 6 6 8 11 12 14
4 4 4 2 3 3 2 1 1 5 12 24 23 8 4 5 4 3 4 2 5 4 3 5 2 6 7 4 4 3 3 3 2 3 3 1 3 5 6 6 7 9 10 12
5 3 3 3 4 6 5 3 5 8 26 30 14 7 5 2 3 2 4 3 4 5 4 2 3 6 6 7 8 7 6 5 5 5 5 5 4 3 3 5 7 9 9 10
3 3 4 6 3 2 2 6 10 19 28 17 7 3 3 2 4 3 5 7 6 3 3 11 11 13 14 12 10 11 10 10 8 6 6 6 6 6 6 6 7 7 8 8
3 2 3 8 5 2 4 3 7 22 14 2 3 4 4 3 3 2 2 4 3 16 20 17 15 14 14 16 16 14 12 13 12 10 8 8 9 8 7 7 7 6 7 7
Wind_Direction
269 267 263 262 258 256 233 202 209 176 171 164 209 217 195 233 233 202 223 177 202 195 188 225 232 229 230 199 160 209 221 203 284 264 290 228 210 223 182 267 307 247 267 274
265 266 263 258 249 233 217 200 195 175 176 184 206 159 241 245 205 190 185 211 199 171 193 231 206 223 254 237 182 218 183 254 309 322 1 270 259 236 218 250 255 255 273 280
277 274 269 254 244 240 222 218 192 192 201 235 179 162 208 223 222 204 186 185 139 142 216 231 266 240 273 212 210 248 185 203 202 247 267 283 295 282 266 246 265 284 265 289
297 286 279 283 264 242 222 221 225 195 193 217 196 160 197 178 206 214 193 201 196 171 209 208 229 229 275 265 246 207 180 248 222 249 263 273 271 277 286 220 241 258 288 292
298 284 271 281 257 246 221 227 217 230 287 205 198 187 209 200 168 163 218 211 197 184 197 194 198 193 203 226 82 175 226 267 338 291 270 253 272 275 269 262 261 251 263 278
312 300 297 277 276 237 282 245 229 236 215 199 190 205 207 192 184 218 199 206 148 187 227 227 245 246 226 217 176 192 212 217 348 268 323 311 292 246 266 275 247 246 293 298
311 306 299 290 276 265 282 227 207 217 233 194 201 188 201 213 211 193 205 189 161 200 194 186 261 259 250 228 227 197 162 140 177 284 334 348 253 299 235 245 273 261 280 306
309 313 309 296 288 305 276 204 199 179 238 214 192 203 194 214 220 238 222 196 197 168 144 73 334 296 255 104 62 210 183 135 258 293 258 285 306 347 327 354 291 294 287 317
298 302 305 311 288 282 312 214 209 209 223 222 194 198 207 178 183 164 209 179 163 159 105 132 205 232 208 220 208 46 104 87 148 187 286 264 247 221 258 158 288 71 324 327
305 302 302 307 310 278 297 264 208 195 205 224 199 177 206 203 169 150 147 160 152 172 131 171 186 237 183 198 199 179 138 155 221 216 258 282 255 270 173 62 275 344 355 338
320 316 313 309 312 277 324 219 203 198 197 201 216 200 211 175 178 151 155 109 155 92 170 172 200 188 216 167 203 184 167 157 199 146 216 287 220 321 346 239 310 322 350 352
319 322 319 312 317 310 331 167 186 207 205 191 207 202 213 216 215 172 171 161 155 164 124 184 126 182 154 157 254 231 213 188 181 189 217 234 271 267 287 293 283 306 331 352
317 323 323 318 318 315 325 201 198 186 191 191 216 218 208 216 213 196 156 190 157 176 165 150 159 188 146 167 233 227 239 169 219 338 262 247 319 332 314 284 291 282 321 349
315 321 323 321 316 307 280 232 204 197 153 174 184 196 200 199 210 198 173 175 165 154 158 126 148 174 201 201 174 197 211 144 194 260 283 298 242 1 350 344 245 269 315 2
316 320 322 322 317 321 331 213 207 199 163 137 141 180 198 211 214 212 189 166 160 150 131 114 204 146 143 111 77 245 190 186 170 231 287 257 280 336 339 335 265 269 300 343
318 321 321 321 318 329 310 120 180 193 181 125 142 143 166 191 199 196 183 181 173 160 159 178 191 183 183 166 222 250 214 213 221 248 296 299 300 304 308 314 275 257 256 265
317 318 316 315 309 306 280 189 187 184 185 160 107 104 141 154 153 154 166 176 166 168 166 181 166 180 194 193 223 241 194 199 230 264 282 296 323 337 321 307 295 241 243 203
313 315 313 307 294 298 260 210 178 176 148 159 141 103 139 163 139 117 133 136 154 169 166 154 167 145 148 254 239 242 247 267 272 241 281 292 299 289 283 288 269 238 221 207
314 313 313 299 258 255 205 174 171 166 156 163 158 155 157 161 134 132 121 148 114 161 168 221 160 166 219 235 234 227 243 263 280 274 283 290 282 282 274 261 251 233 217 204
322 318 310 269 229 286 175 142 145 151 162 144 109 138 132 156 154 100 104 100 137 165 223 152 195 249 246 252 253 262 275 282 288 293 297 298 294 285 266 261 250 239 225 212
335 315 270 307 194 150 159 154 173 132 157 173 149 149 126 153 106 110 152 148 160 158 221 167 212 262 196 352 305 282 278 278 277 278 279 278 273 268 269 272 239 226 219 211
301 302 296 294 246 228 192 167 153 174 180 154 137 142 116 131 124 97 162 133 150 195 149 159 241 249 114 330 319 307 285 284 287 283 291 287 267 248 251 261 229 217 210 201
301 253 254 246 243 259 215 186 164 148 157 153 151 115 115 119 150 104 147 145 170 138 156 223 228 114 339 333 331 320 324 320 326 318 304 284 245 232 248 251 218 207 201 199
259 251 268 230 239 258 333 263 103 130 152 139 136 110 120 132 158 154 118 114 143 172 204 232 249 348 354 24 32 23 34 46 44 22 23 3 258 240 241 234 202 197 202 199
249 237 244 254 301 270 261 230 147 124 143 137 121 89 112 127 121 98 100 141 205 207 210 175 58 42 63 69 64 60 60 65 63 58 52 57 70 100 136 164 171 176 185 191
245 249 282 304 275 289 15 136 121 138 147 137 89 113 105 131 125 104 208 143 197 184 140 121 97 79 71 68 68 62 60 59 61 59 58 65 83 96 108 123 141 155 164 175
300 295 334 329 282 322 5 7 127 151 145 108 108 106 175 96 92 153 219 174 158 128 124 107 89 86 79 71 68 65 67 68 64 67 69 74 80 87 98 108 114 126 145 161